Time,TemperatureF,DewpointF,PressureIn,WindDirection,WindDirectionDegrees,WindSpeedMPH,WindSpeedGustMPH,Humidity,HourlyPrecipIn,Conditions,Clouds,dailyrainin,SoftwareType,DateUTC
2013-04-29 00:00:00,36.8,29.6,30.27,SSE,158,0.0,0.0,75,0.00,,,0.00,VWS V14.01,2013-04-29 04:00:00,
2013-04-29 00:01:00,36.8,29.6,30.27,SSE,158,0.0,0.0,75,0.00,,,0.00,VWS V14.01,2013-04-29 04:01:00,
2013-04-29 00:06:00,36.6,29.1,30.27,SSE,158,0.0,0.0,74,0.00,,,0.00,VWS V14.01,2013-04-29 04:06:00,
2013-04-29 00:11:00,36.6,29.7,30.27,SSE,158,0.0,0.0,76,0.00,,,0.00,VWS V14.01,2013-04-29 04:11:00,
2013-04-29 00:16:00,36.6,30.1,30.27,SSE,158,0.0,0.0,77,0.00,,,0.00,VWS V14.01,2013-04-29 04:16:00,
2013-04-29 00:21:00,36.4,29.6,30.27,SSE,158,0.0,0.0,76,0.00,,,0.00,VWS V14.01,2013-04-29 04:21:00,
2013-04-29 00:26:00,36.4,29.6,30.27,SSE,158,1.1,1.3,76,0.00,,,0.00,VWS V14.01,2013-04-29 04:26:00,
2013-04-29 00:30:00,36.4,29.6,30.27,SSE,158,1.3,1.3,76,0.00,,,0.00,VWS V14.01,2013-04-29 04:30:00,
2013-04-29 00:31:00,36.4,29.2,30.27,SSE,158,0.0,0.0,75,0.00,,,0.00,VWS V14.01,2013-04-29 04:31:00,
2013-04-29 00:36:00,36.4,29.2,30.27,SSE,158,0.0,0.0,75,0.00,,,0.00,VWS V14.01,2013-04-29 04:36:00,
2013-04-29 00:41:00,36.4,29.2,30.27,SSE,158,0.0,0.0,75,0.00,,,0.00,VWS V14.01,2013-04-29 04:41:00,
2013-04-29 00:46:00,36.4,29.2,30.27,SSE,158,0.0,0.0,75,0.00,,,0.00,VWS V14.01,2013-04-29 04:46:00,
2013-04-29 00:51:00,36.6,29.7,30.27,SSE,158,0.0,0.0,76,0.00,,,0.00,VWS V14.01,2013-04-29 04:51:00,
2013-04-29 00:56:00,36.4,29.6,30.27,SSE,158,0.0,0.0,76,0.00,,,0.00,VWS V14.01,2013-04-29 04:56:00,
2013-04-29 01:00:00,36.4,29.6,30.27,SSE,158,0.0,0.0,76,0.00,,,0.00,VWS V14.01,2013-04-29 05:00:00,
2013-04-29 01:01:00,36.0,29.5,30.27,SSE,158,0.0,0.0,77,0.00,,,0.00,VWS V14.01,2013-04-29 05:01:00,
2013-04-29 01:06:00,36.2,29.7,30.27,SSE,158,1.3,1.3,77,0.00,,,0.00,VWS V14.01,2013-04-29 05:06:00,
2013-04-29 01:11:00,36.0,29.9,30.27,SSE,158,0.0,0.0,78,0.00,,,0.00,VWS V14.01,2013-04-29 05:11:00,
2013-04-29 01:16:00,35.9,30.3,30.27,SSE,158,0.0,0.0,80,0.00,,,0.00,VWS V14.01,2013-04-29 05:16:00,
2013-04-29 01:21:00,36.0,30.2,30.27,SSE,158,1.6,2.0,79,0.00,,,0.00,VWS V14.01,2013-04-29 05:21:00,
2013-04-29 01:26:00,36.4,30.5,30.27,SSE,158,0.9,1.6,79,0.00,,,0.00,VWS V14.01,2013-04-29 05:26:00,
2013-04-29 01:30:00,36.4,30.5,30.27,SSE,158,1.3,1.6,79,0.00,,,0.00,VWS V14.01,2013-04-29 05:30:00,
2013-04-29 01:31:00,36.2,30.6,30.27,SSE,158,2.0,2.7,80,0.00,,,0.00,VWS V14.01,2013-04-29 05:31:00,
2013-04-29 01:36:00,35.9,30.3,30.27,SSE,158,0.0,0.0,80,0.00,,,0.00,VWS V14.01,2013-04-29 05:36:00,
2013-04-29 01:41:00,35.7,30.1,30.24,SSE,158,0.0,0.0,80,0.00,,,0.00,VWS V14.01,2013-04-29 05:41:00,
2013-04-29 01:46:00,35.5,30.3,30.24,SSE,158,0.0,0.0,81,0.00,,,0.00,VWS V14.01,2013-04-29 05:46:00,
2013-04-29 01:51:00,35.3,30.1,30.24,SSE,158,0.0,0.0,81,0.00,,,0.00,VWS V14.01,2013-04-29 05:51:00,
2013-04-29 01:56:00,35.1,29.6,30.24,SSE,158,0.0,0.0,80,0.00,,,0.00,VWS V14.01,2013-04-29 05:56:00,
2013-04-29 02:00:00,35.1,29.6,30.24,SSE,158,0.0,0.0,80,0.00,,,0.00,VWS V14.01,2013-04-29 06:00:00,
2013-04-29 02:01:00,35.1,29.6,30.24,SSE,158,0.0,0.0,80,0.00,,,0.00,VWS V14.01,2013-04-29 06:01:00,
2013-04-29 02:06:00,35.0,29.7,30.24,SSE,158,0.0,0.0,81,0.00,,,0.00,VWS V14.01,2013-04-29 06:06:00,
2013-04-29 02:11:00,35.0,29.7,30.24,SSE,158,0.0,0.0,81,0.00,,,0.00,VWS V14.01,2013-04-29 06:11:00,
2013-04-29 02:16:00,34.8,29.6,30.24,SSE,158,0.0,0.0,81,0.00,,,0.00,VWS V14.01,2013-04-29 06:16:00,
2013-04-29 02:21:00,34.6,29.4,30.24,SSE,158,0.0,0.0,81,0.00,,,0.00,VWS V14.01,2013-04-29 06:21:00,
2013-04-29 02:26:00,34.6,29.4,30.24,SSE,158,0.0,0.0,81,0.00,,,0.00,VWS V14.01,2013-04-29 06:26:00,
2013-04-29 02:30:00,34.6,29.4,30.24,SSE,158,0.0,0.0,81,0.00,,,0.00,VWS V14.01,2013-04-29 06:30:00,
2013-04-29 02:31:00,34.6,29.4,30.24,SSE,158,0.0,0.0,81,0.00,,,0.00,VWS V14.01,2013-04-29 06:31:00,
2013-04-29 02:36:00,34.4,29.2,30.24,SSE,158,0.0,0.0,81,0.00,,,0.00,VWS V14.01,2013-04-29 06:36:00,
2013-04-29 02:41:00,34.2,29.3,30.24,SSE,158,0.0,0.0,82,0.00,,,0.00,VWS V14.01,2013-04-29 06:41:00,
2013-04-29 02:46:00,34.2,29.3,30.24,SSE,158,0.0,0.0,82,0.00,,,0.00,VWS V14.01,2013-04-29 06:46:00,
2013-04-29 02:51:00,34.1,29.1,30.24,SSE,158,0.0,0.0,82,0.00,,,0.00,VWS V14.01,2013-04-29 06:51:00,
2013-04-29 02:56:00,34.1,29.1,30.24,SSE,158,0.0,0.0,82,0.00,,,0.00,VWS V14.01,2013-04-29 06:56:00,
2013-04-29 03:00:00,34.1,29.1,30.24,SSE,158,0.0,0.0,82,0.00,,,0.00,VWS V14.01,2013-04-29 07:00:00,
2013-04-29 03:01:00,34.1,29.5,30.24,SSE,158,0.0,0.0,83,0.00,,,0.00,VWS V14.01,2013-04-29 07:01:00,
2013-04-29 03:06:00,34.1,29.7,30.24,SSE,158,0.0,0.0,84,0.00,,,0.00,VWS V14.01,2013-04-29 07:06:00,
2013-04-29 03:11:00,33.9,29.6,30.24,SSE,158,0.0,0.0,84,0.00,,,0.00,VWS V14.01,2013-04-29 07:11:00,
2013-04-29 03:16:00,33.9,29.6,30.24,SSE,158,0.0,0.0,84,0.00,,,0.00,VWS V14.01,2013-04-29 07:16:00,
2013-04-29 03:21:00,33.9,29.6,30.24,SSE,158,0.0,0.0,84,0.00,,,0.00,VWS V14.01,2013-04-29 07:21:00,
2013-04-29 03:26:00,33.7,29.4,30.24,SSE,158,0.0,0.0,84,0.00,,,0.00,VWS V14.01,2013-04-29 07:26:00,
2013-04-29 03:30:00,33.7,29.4,30.24,SSE,158,0.0,0.0,84,0.00,,,0.00,VWS V14.01,2013-04-29 07:30:00,
2013-04-29 03:31:00,33.5,29.2,30.24,SSE,158,0.0,0.0,84,0.00,,,0.00,VWS V14.01,2013-04-29 07:31:00,
2013-04-29 03:36:00,33.5,28.9,30.24,SSE,158,0.0,0.0,83,0.00,,,0.00,VWS V14.01,2013-04-29 07:36:00,
2013-04-29 03:41:00,33.3,29.0,30.24,SSE,158,0.0,0.0,84,0.00,,,0.00,VWS V14.01,2013-04-29 07:41:00,
2013-04-29 03:46:00,33.3,28.7,30.24,SSE,158,0.0,0.0,83,0.00,,,0.00,VWS V14.01,2013-04-29 07:46:00,
2013-04-29 03:51:00,33.3,28.7,30.24,SSE,158,0.0,0.0,83,0.00,,,0.00,VWS V14.01,2013-04-29 07:51:00,
2013-04-29 03:56:00,33.0,28.7,30.24,SSE,158,1.3,1.6,84,0.00,,,0.00,VWS V14.01,2013-04-29 07:56:00,
2013-04-29 04:00:00,33.2,28.9,30.24,SSE,158,1.3,1.6,84,0.00,,,0.00,VWS V14.01,2013-04-29 08:00:00,
2013-04-29 04:01:00,33.0,29.0,30.24,SSE,158,1.1,2.0,85,0.00,,,0.00,VWS V14.01,2013-04-29 08:01:00,
2013-04-29 04:06:00,32.8,28.8,30.24,SE,135,0.0,1.3,85,0.00,,,0.00,VWS V14.01,2013-04-29 08:06:00,
2013-04-29 04:11:00,32.8,28.5,30.24,SE,135,0.0,0.0,84,0.00,,,0.00,VWS V14.01,2013-04-29 08:11:00,
2013-04-29 04:16:00,32.6,28.3,30.24,SE,135,0.0,0.0,84,0.00,,,0.00,VWS V14.01,2013-04-29 08:16:00,
2013-04-29 04:21:00,32.6,28.3,30.24,SE,135,0.0,0.0,84,0.00,,,0.00,VWS V14.01,2013-04-29 08:21:00,
2013-04-29 04:26:00,32.4,28.1,30.24,SE,135,0.0,0.0,84,0.00,,,0.00,VWS V14.01,2013-04-29 08:26:00,
2013-04-29 04:30:00,32.4,28.1,30.24,SE,135,0.0,0.0,84,0.00,,,0.00,VWS V14.01,2013-04-29 08:30:00,
2013-04-29 04:31:00,32.6,28.0,30.24,SE,135,0.0,0.9,83,0.00,,,0.00,VWS V14.01,2013-04-29 08:31:00,
2013-04-29 04:36:00,32.8,28.2,30.24,ESE,112,0.0,1.3,83,0.00,,,0.00,VWS V14.01,2013-04-29 08:36:00,
2013-04-29 04:41:00,32.6,28.3,30.24,ESE,112,0.0,0.0,84,0.00,,,0.00,VWS V14.01,2013-04-29 08:41:00,
2013-04-29 04:46:00,32.6,28.3,30.24,ESE,112,0.0,0.0,84,0.00,,,0.00,VWS V14.01,2013-04-29 08:46:00,
2013-04-29 04:51:00,32.4,28.1,30.24,ESE,112,0.0,0.9,84,0.00,,,0.00,VWS V14.01,2013-04-29 08:51:00,
2013-04-29 04:56:00,32.4,28.1,30.24,ESE,112,0.9,1.3,84,0.00,,,0.00,VWS V14.01,2013-04-29 08:56:00,
2013-04-29 05:00:00,32.4,28.1,30.24,ESE,112,0.9,1.3,84,0.00,,,0.00,VWS V14.01,2013-04-29 09:00:00,
2013-04-29 05:01:00,32.4,28.1,30.24,ESE,112,0.0,0.9,84,0.00,,,0.00,VWS V14.01,2013-04-29 09:01:00,
2013-04-29 05:06:00,32.3,28.0,30.24,ESE,112,0.0,1.3,84,0.00,,,0.00,VWS V14.01,2013-04-29 09:06:00,
2013-04-29 05:11:00,32.3,28.3,30.24,East,90,1.3,1.3,85,0.00,,,0.00,VWS V14.01,2013-04-29 09:11:00,
2013-04-29 05:16:00,32.3,28.5,30.24,ENE,68,0.0,0.0,86,0.00,,,0.00,VWS V14.01,2013-04-29 09:16:00,
2013-04-29 05:21:00,32.3,28.5,30.24,ENE,68,1.1,1.3,86,0.00,,,0.00,VWS V14.01,2013-04-29 09:21:00,
2013-04-29 05:26:00,32.3,28.5,30.24,NE,45,0.0,0.0,86,0.00,,,0.00,VWS V14.01,2013-04-29 09:26:00,
2013-04-29 05:30:00,32.3,28.5,30.24,NE,45,0.0,0.0,86,0.00,,,0.00,VWS V14.01,2013-04-29 09:30:00,
2013-04-29 05:31:00,32.1,28.4,30.24,NE,45,0.0,0.0,86,0.00,,,0.00,VWS V14.01,2013-04-29 09:31:00,
2013-04-29 05:36:00,32.3,28.5,30.24,NE,45,0.0,1.3,86,0.00,,,0.00,VWS V14.01,2013-04-29 09:36:00,
2013-04-29 05:41:00,32.3,28.5,30.24,NE,45,0.0,0.0,86,0.00,,,0.00,VWS V14.01,2013-04-29 09:41:00,
2013-04-29 05:46:00,32.1,28.4,30.24,NE,45,0.0,0.0,86,0.00,,,0.00,VWS V14.01,2013-04-29 09:46:00,
2013-04-29 05:51:00,32.1,28.4,30.24,NE,45,0.0,0.0,86,0.00,,,0.00,VWS V14.01,2013-04-29 09:51:00,
2013-04-29 05:56:00,32.1,28.4,30.24,NE,45,0.0,0.0,86,0.00,,,0.00,VWS V14.01,2013-04-29 09:56:00,
2013-04-29 06:00:00,32.1,28.4,30.24,NE,45,0.0,0.0,86,0.00,,,0.00,VWS V14.01,2013-04-29 10:00:00,
2013-04-29 06:01:00,32.3,28.8,30.24,NE,45,1.3,1.6,87,0.00,,,0.00,VWS V14.01,2013-04-29 10:01:00,
2013-04-29 06:06:00,32.8,29.4,30.24,NNE,22,1.1,1.3,87,0.00,,,0.00,VWS V14.01,2013-04-29 10:06:00,
2013-04-29 06:11:00,32.8,29.6,30.24,NNE,22,0.0,0.0,88,0.00,,,0.00,VWS V14.01,2013-04-29 10:11:00,
2013-04-29 06:16:00,32.8,29.4,30.24,NNE,22,0.0,1.1,87,0.00,,,0.00,VWS V14.01,2013-04-29 10:16:00,
2013-04-29 06:21:00,33.0,29.5,30.24,NNE,22,0.0,0.0,87,0.00,,,0.00,VWS V14.01,2013-04-29 10:21:00,
2013-04-29 06:26:00,33.2,30.0,30.27,NNE,22,0.0,0.0,88,0.00,,,0.00,VWS V14.01,2013-04-29 10:26:00,
2013-04-29 06:30:00,33.2,30.0,30.27,NNE,22,0.0,0.0,88,0.00,,,0.00,VWS V14.01,2013-04-29 10:30:00,
2013-04-29 06:31:00,33.3,30.2,30.27,NNE,22,0.0,0.0,88,0.00,,,0.00,VWS V14.01,2013-04-29 10:31:00,
2013-04-29 06:36:00,33.7,30.5,30.27,NNE,22,0.0,0.0,88,0.00,,,0.00,VWS V14.01,2013-04-29 10:36:00,
2013-04-29 06:41:00,34.1,30.9,30.27,NNE,22,0.0,0.0,88,0.00,,,0.00,VWS V14.01,2013-04-29 10:41:00,
2013-04-29 06:46:00,34.6,31.4,30.27,NNE,22,0.0,0.0,88,0.00,,,0.00,VWS V14.01,2013-04-29 10:46:00,
2013-04-29 06:51:00,35.3,32.1,30.27,NNE,22,0.0,0.0,88,0.00,,,0.00,VWS V14.01,2013-04-29 10:51:00,
2013-04-29 06:56:00,36.4,33.2,30.27,NNE,22,0.0,0.0,88,0.00,,,0.00,VWS V14.01,2013-04-29 10:56:00,
2013-04-29 07:00:00,36.4,33.2,30.27,NNE,22,0.0,0.0,88,0.00,,,0.00,VWS V14.01,2013-04-29 11:00:00,
2013-04-29 07:01:00,37.7,34.7,30.27,NNE,22,1.1,2.0,89,0.00,,,0.00,VWS V14.01,2013-04-29 11:01:00,
2013-04-29 07:06:00,40.5,37.8,30.27,NNE,22,0.9,1.3,90,0.00,,,0.00,VWS V14.01,2013-04-29 11:06:00,
2013-04-29 07:11:00,43.2,40.5,30.27,NNE,22,0.9,0.9,90,0.00,,,0.00,VWS V14.01,2013-04-29 11:11:00,
2013-04-29 07:16:00,45.9,41.7,30.27,NE,45,1.3,1.3,85,0.00,,,0.00,VWS V14.01,2013-04-29 11:16:00,
2013-04-29 07:21:00,47.7,43.8,30.27,NE,45,0.0,1.3,86,0.00,,,0.00,VWS V14.01,2013-04-29 11:21:00,
2013-04-29 07:26:00,49.7,44.8,30.27,NE,45,0.0,0.0,83,0.00,,,0.00,VWS V14.01,2013-04-29 11:26:00,
2013-04-29 07:30:00,49.7,44.8,30.27,NE,45,0.0,0.0,83,0.00,,,0.00,VWS V14.01,2013-04-29 11:30:00,
2013-04-29 07:31:00,52.1,45.8,30.27,NE,45,0.0,1.3,79,0.00,,,0.00,VWS V14.01,2013-04-29 11:31:00,
2013-04-29 07:36:00,53.7,44.1,30.27,NE,45,1.1,1.6,70,0.00,,,0.00,VWS V14.01,2013-04-29 11:36:00,
2013-04-29 07:41:00,54.0,43.7,30.27,ENE,68,0.0,0.0,68,0.00,,,0.00,VWS V14.01,2013-04-29 11:41:00,
2013-04-29 07:46:00,56.6,43.3,30.27,SSW,202,2.0,2.2,61,0.00,,,0.00,VWS V14.01,2013-04-29 11:46:00,
2013-04-29 07:51:00,57.5,40.0,30.27,SSW,202,2.5,2.7,52,0.00,,,0.00,VWS V14.01,2013-04-29 11:51:00,
2013-04-29 07:56:00,58.5,37.8,30.27,SSE,158,2.2,2.5,46,0.00,,,0.00,VWS V14.01,2013-04-29 11:56:00,
2013-04-29 08:00:00,58.5,37.8,30.27,SSE,158,2.2,2.5,46,0.00,,,0.00,VWS V14.01,2013-04-29 12:00:00,
2013-04-29 08:01:00,59.6,37.7,30.27,SSW,202,1.1,2.2,44,0.00,,,0.00,VWS V14.01,2013-04-29 12:01:00,
2013-04-29 08:06:00,60.3,37.8,30.27,SSW,202,2.2,2.2,43,0.00,,,0.00,VWS V14.01,2013-04-29 12:06:00,
2013-04-29 08:11:00,61.4,35.6,30.27,South,180,2.9,2.9,38,0.00,,,0.00,VWS V14.01,2013-04-29 12:11:00,
2013-04-29 08:16:00,62.5,35.9,30.27,South,180,2.0,2.2,37,0.00,,,0.00,VWS V14.01,2013-04-29 12:16:00,
2013-04-29 08:21:00,62.7,35.4,30.27,South,180,2.2,2.9,36,0.00,,,0.00,VWS V14.01,2013-04-29 12:21:00,
2013-04-29 08:26:00,63.2,34.4,30.27,SSE,158,2.2,2.9,34,0.00,,,0.00,VWS V14.01,2013-04-29 12:26:00,
2013-04-29 08:30:00,63.2,34.4,30.27,SSE,158,2.2,2.9,34,0.00,,,0.00,VWS V14.01,2013-04-29 12:30:00,
2013-04-29 08:31:00,64.7,36.4,30.27,SSE,158,1.1,2.0,35,0.00,,,0.00,VWS V14.01,2013-04-29 12:31:00,
2013-04-29 08:36:00,65.4,36.3,30.27,South,180,0.9,2.0,34,0.00,,,0.00,VWS V14.01,2013-04-29 12:36:00,
2013-04-29 08:41:00,65.4,34.0,30.27,SSE,158,2.2,2.9,31,0.00,,,0.00,VWS V14.01,2013-04-29 12:41:00,
2013-04-29 08:46:00,65.4,34.0,30.27,SSE,158,3.6,3.8,31,0.00,,,0.00,VWS V14.01,2013-04-29 12:46:00,
2013-04-29 08:51:00,65.9,34.5,30.27,South,180,2.0,3.1,31,0.00,,,0.00,VWS V14.01,2013-04-29 12:51:00,
2013-04-29 08:56:00,65.6,32.5,30.27,SSE,158,2.7,3.4,29,0.00,,,0.00,VWS V14.01,2013-04-29 12:56:00,
2013-04-29 09:00:00,65.6,32.5,30.27,SSW,202,3.4,3.4,29,0.00,,,0.00,VWS V14.01,2013-04-29 13:00:00,
2013-04-29 09:01:00,65.7,32.6,30.27,SSE,158,2.0,3.1,29,0.00,,,0.00,VWS V14.01,2013-04-29 13:01:00,
2013-04-29 09:06:00,65.0,32.9,30.27,SSW,202,2.9,2.9,30,0.00,,,0.00,VWS V14.01,2013-04-29 13:06:00,
2013-04-29 09:11:00,65.0,33.7,30.27,SSW,202,2.2,4.3,31,0.00,,,0.00,VWS V14.01,2013-04-29 13:11:00,
2013-04-29 09:16:00,65.0,33.7,30.27,SSW,202,1.6,3.8,31,0.00,,,0.00,VWS V14.01,2013-04-29 13:16:00,
2013-04-29 09:21:00,64.7,33.4,30.27,SSW,202,2.5,4.0,31,0.00,,,0.00,VWS V14.01,2013-04-29 13:21:00,
2013-04-29 09:26:00,64.1,32.9,30.27,SSW,202,4.0,4.0,31,0.00,,,0.00,VWS V14.01,2013-04-29 13:26:00,
2013-04-29 09:30:00,64.1,32.9,30.27,SSW,202,4.0,4.0,31,0.00,,,0.00,VWS V14.01,2013-04-29 13:30:00,
2013-04-29 09:31:00,61.6,32.2,30.27,South,180,3.4,3.4,33,0.00,,,0.00,VWS V14.01,2013-04-29 13:31:00,
2013-04-29 09:36:00,60.9,32.3,30.27,SSE,158,2.5,2.9,34,0.00,,,0.00,VWS V14.01,2013-04-29 13:36:00,
2013-04-29 09:41:00,61.4,32.8,30.24,South,180,2.7,3.1,34,0.00,,,0.00,VWS V14.01,2013-04-29 13:41:00,
2013-04-29 09:46:00,61.8,33.1,30.24,SSE,158,2.7,2.9,34,0.00,,,0.00,VWS V14.01,2013-04-29 13:46:00,
2013-04-29 09:51:00,62.1,33.5,30.24,SSE,158,3.4,3.4,34,0.00,,,0.00,VWS V14.01,2013-04-29 13:51:00,
2013-04-29 09:56:00,62.0,31.8,30.27,SSE,158,4.3,4.3,32,0.00,,,0.00,VWS V14.01,2013-04-29 13:56:00,
2013-04-29 10:00:00,62.0,31.8,30.27,SSE,158,4.3,4.3,32,0.00,,,0.00,VWS V14.01,2013-04-29 14:00:00,
2013-04-29 10:01:00,62.0,31.8,30.27,SSW,202,2.9,3.4,32,0.00,,,0.00,VWS V14.01,2013-04-29 14:01:00,
2013-04-29 10:06:00,62.3,31.3,30.27,SSE,158,2.7,2.9,31,0.00,,,0.00,VWS V14.01,2013-04-29 14:06:00,
2013-04-29 10:11:00,64.1,33.7,30.27,ESE,112,1.3,3.4,32,0.00,,,0.00,VWS V14.01,2013-04-29 14:11:00,
2013-04-29 10:16:00,64.5,32.4,30.27,South,180,2.9,3.6,30,0.00,,,0.00,VWS V14.01,2013-04-29 14:16:00,
2013-04-29 10:21:00,64.5,31.5,30.27,South,180,3.4,4.7,29,0.00,,,0.00,VWS V14.01,2013-04-29 14:21:00,
2013-04-29 10:26:00,64.5,33.2,30.27,South,180,3.8,3.8,31,0.00,,,0.00,VWS V14.01,2013-04-29 14:26:00,
2013-04-29 10:30:00,64.5,33.2,30.27,South,180,3.6,3.6,31,0.00,,,0.00,VWS V14.01,2013-04-29 14:30:00,
2013-04-29 10:31:00,65.0,34.5,30.27,SSE,158,1.3,3.6,32,0.00,,,0.00,VWS V14.01,2013-04-29 14:31:00,
2013-04-29 10:36:00,65.4,34.0,30.27,SSW,202,3.1,3.1,31,0.00,,,0.00,VWS V14.01,2013-04-29 14:36:00,
2013-04-29 10:41:00,66.1,34.6,30.27,SSW,202,3.6,3.8,31,0.00,,,0.00,VWS V14.01,2013-04-29 14:41:00,
2013-04-29 10:46:00,65.9,33.6,30.27,SSE,158,3.8,3.8,30,0.00,,,0.00,VWS V14.01,2013-04-29 14:46:00,
2013-04-29 10:51:00,66.5,34.1,30.27,SSE,158,2.0,3.6,30,0.00,,,0.00,VWS V14.01,2013-04-29 14:51:00,
2013-04-29 10:56:00,67.2,34.7,30.27,SSE,158,2.0,3.6,30,0.00,,,0.00,VWS V14.01,2013-04-29 14:56:00,
2013-04-29 11:00:00,67.2,34.7,30.27,SSE,158,2.0,3.6,30,0.00,,,0.00,VWS V14.01,2013-04-29 15:00:00,
2013-04-29 11:01:00,68.1,35.5,30.27,SSE,158,2.7,3.1,30,0.00,,,0.00,VWS V14.01,2013-04-29 15:01:00,
2013-04-29 11:06:00,68.1,34.7,30.27,South,180,3.4,4.3,29,0.00,,,0.00,VWS V14.01,2013-04-29 15:06:00,
2013-04-29 11:11:00,67.5,33.3,30.27,South,180,5.8,5.8,28,0.00,,,0.00,VWS V14.01,2013-04-29 15:11:00,
2013-04-29 11:16:00,67.5,33.3,30.27,South,180,4.0,5.6,28,0.00,,,0.00,VWS V14.01,2013-04-29 15:16:00,
2013-04-29 11:21:00,67.0,32.0,30.27,SSE,158,4.0,4.7,27,0.00,,,0.00,VWS V14.01,2013-04-29 15:21:00,
2013-04-29 11:26:00,67.2,33.0,30.27,SSW,202,4.0,4.3,28,0.00,,,0.00,VWS V14.01,2013-04-29 15:26:00,
2013-04-29 11:30:00,67.2,33.0,30.27,SSE,158,4.3,4.3,28,0.00,,,0.00,VWS V14.01,2013-04-29 15:30:00,
2013-04-29 11:31:00,67.2,31.2,30.27,SSW,202,4.0,6.3,26,0.00,,,0.00,VWS V14.01,2013-04-29 15:31:00,
2013-04-29 11:36:00,67.0,31.0,30.27,SSE,158,3.6,4.9,26,0.00,,,0.00,VWS V14.01,2013-04-29 15:36:00,
2013-04-29 11:41:00,67.5,32.4,30.27,South,180,4.7,4.7,27,0.00,,,0.00,VWS V14.01,2013-04-29 15:41:00,
2013-04-29 11:46:00,68.6,33.3,30.27,South,180,3.4,3.8,27,0.00,,,0.00,VWS V14.01,2013-04-29 15:46:00,
2013-04-29 11:51:00,69.2,31.9,30.27,South,180,2.7,5.8,25,0.00,,,0.00,VWS V14.01,2013-04-29 15:51:00,
2013-04-29 11:56:00,71.0,33.4,30.27,SE,135,2.0,4.7,25,0.00,,,0.00,VWS V14.01,2013-04-29 15:56:00,
2013-04-29 12:00:00,71.0,33.4,30.27,SE,135,2.0,4.7,25,0.00,,,0.00,VWS V14.01,2013-04-29 16:00:00,
2013-04-29 12:01:00,69.3,30.0,30.27,South,180,7.2,7.2,23,0.00,,,0.00,VWS V14.01,2013-04-29 16:01:00,
2013-04-29 12:06:00,68.8,29.5,30.27,South,180,4.9,4.9,23,0.00,,,0.00,VWS V14.01,2013-04-29 16:06:00,
2013-04-29 12:11:00,68.8,29.5,30.27,SSW,202,7.6,7.6,23,0.00,,,0.00,VWS V14.01,2013-04-29 16:11:00,
2013-04-29 12:16:00,69.2,29.8,30.27,SSE,158,3.4,5.8,23,0.00,,,0.00,VWS V14.01,2013-04-29 16:16:00,
2013-04-29 12:21:00,69.7,30.3,30.27,South,180,3.4,5.4,23,0.00,,,0.00,VWS V14.01,2013-04-29 16:21:00,
2013-04-29 12:26:00,70.2,30.7,30.27,SSE,158,3.4,4.3,23,0.00,,,0.00,VWS V14.01,2013-04-29 16:26:00,
2013-04-29 12:30:00,70.2,30.7,30.27,SSE,158,3.1,3.8,23,0.00,,,0.00,VWS V14.01,2013-04-29 16:30:00,
2013-04-29 12:31:00,70.1,30.6,30.27,SSE,158,3.8,5.4,23,0.00,,,0.00,VWS V14.01,2013-04-29 16:31:00,
2013-04-29 12:36:00,70.4,30.9,30.27,SSE,158,3.1,3.8,23,0.00,,,0.00,VWS V14.01,2013-04-29 16:36:00,
2013-04-29 12:41:00,70.4,30.9,30.24,NNW,338,2.9,4.9,23,0.00,,,0.00,VWS V14.01,2013-04-29 16:41:00,
2013-04-29 12:46:00,70.4,30.9,30.24,SSW,202,3.8,3.8,23,0.00,,,0.00,VWS V14.01,2013-04-29 16:46:00,
2013-04-29 12:51:00,70.1,30.6,30.24,SSE,158,2.9,5.6,23,0.00,,,0.00,VWS V14.01,2013-04-29 16:51:00,
2013-04-29 12:56:00,69.7,30.3,30.24,SSW,202,4.9,4.9,23,0.00,,,0.00,VWS V14.01,2013-04-29 16:56:00,
2013-04-29 13:00:00,69.7,30.3,30.24,SSW,202,3.4,5.4,23,0.00,,,0.00,VWS V14.01,2013-04-29 17:00:00,
2013-04-29 13:01:00,70.4,30.9,30.24,SSE,158,2.2,3.4,23,0.00,,,0.00,VWS V14.01,2013-04-29 17:01:00,
2013-04-29 13:06:00,70.4,30.9,30.24,SSE,158,3.4,5.4,23,0.00,,,0.00,VWS V14.01,2013-04-29 17:06:00,
2013-04-29 13:11:00,69.7,30.3,30.24,SSW,202,2.7,4.3,23,0.00,,,0.00,VWS V14.01,2013-04-29 17:11:00,
2013-04-29 13:16:00,68.4,29.2,30.24,SSE,158,4.9,5.4,23,0.00,,,0.00,VWS V14.01,2013-04-29 17:16:00,
2013-04-29 13:21:00,67.2,28.2,30.24,SSW,202,4.0,4.0,23,0.00,,,0.00,VWS V14.01,2013-04-29 17:21:00,
2013-04-29 13:26:00,66.1,28.3,30.24,SSE,158,6.5,6.5,24,0.00,,,0.00,VWS V14.01,2013-04-29 17:26:00,
2013-04-29 13:30:00,66.1,28.3,30.24,SSE,158,6.5,6.5,24,0.00,,,0.00,VWS V14.01,2013-04-29 17:30:00,
2013-04-29 13:31:00,65.6,28.8,30.24,SSE,158,1.6,4.7,25,0.00,,,0.00,VWS V14.01,2013-04-29 17:31:00,
2013-04-29 13:36:00,65.6,27.8,30.24,SSE,158,2.7,3.8,24,0.00,,,0.00,VWS V14.01,2013-04-29 17:36:00,
2013-04-29 13:41:00,65.6,27.8,30.24,SSE,158,2.7,3.8,24,0.00,,,0.00,VWS V14.01,2013-04-29 17:41:00,
2013-04-29 13:46:00,65.4,27.7,30.24,South,180,2.9,4.3,24,0.00,,,0.00,VWS V14.01,2013-04-29 17:46:00,
2013-04-29 13:51:00,65.0,26.4,30.24,SSE,158,3.8,3.8,23,0.00,,,0.00,VWS V14.01,2013-04-29 17:51:00,
2013-04-29 13:56:00,65.0,26.4,30.24,South,180,3.8,4.7,23,0.00,,,0.00,VWS V14.01,2013-04-29 17:56:00,
2013-04-29 14:00:00,65.0,26.4,30.24,South,180,4.0,4.7,23,0.00,,,0.00,VWS V14.01,2013-04-29 18:00:00,
2013-04-29 14:01:00,65.0,26.4,30.24,South,180,3.4,3.6,23,0.00,,,0.00,VWS V14.01,2013-04-29 18:01:00,
2013-04-29 14:06:00,64.8,26.2,30.24,South,180,3.1,4.9,23,0.00,,,0.00,VWS V14.01,2013-04-29 18:06:00,
2013-04-29 14:11:00,64.8,27.2,30.24,SSE,158,2.2,3.8,24,0.00,,,0.00,VWS V14.01,2013-04-29 18:11:00,
2013-04-29 14:16:00,64.8,27.2,30.24,South,180,4.7,4.7,24,0.00,,,0.00,VWS V14.01,2013-04-29 18:16:00,
2013-04-29 14:21:00,64.8,27.2,30.24,SSE,158,5.4,5.4,24,0.00,,,0.00,VWS V14.01,2013-04-29 18:21:00,
2013-04-29 14:26:00,64.7,27.1,30.24,South,180,5.6,5.6,24,0.00,,,0.00,VWS V14.01,2013-04-29 18:26:00,
2013-04-29 14:30:00,64.7,27.1,30.24,South,180,5.6,5.6,24,0.00,,,0.00,VWS V14.01,2013-04-29 18:30:00,
2013-04-29 14:31:00,63.9,26.5,30.24,South,180,4.7,5.6,24,0.00,,,0.00,VWS V14.01,2013-04-29 18:31:00,
2013-04-29 14:36:00,63.4,26.0,30.24,South,180,5.6,5.6,24,0.00,,,0.00,VWS V14.01,2013-04-29 18:36:00,
2013-04-29 14:41:00,63.4,27.0,30.24,SSW,202,4.9,4.9,25,0.00,,,0.00,VWS V14.01,2013-04-29 18:41:00,
2013-04-29 14:46:00,63.2,27.8,30.24,South,180,3.8,3.8,26,0.00,,,0.00,VWS V14.01,2013-04-29 18:46:00,
2013-04-29 14:51:00,63.2,27.8,30.24,SSW,202,3.8,4.9,26,0.00,,,0.00,VWS V14.01,2013-04-29 18:51:00,
2013-04-29 14:56:00,62.9,27.5,30.21,SSW,202,5.6,6.0,26,0.00,,,0.00,VWS V14.01,2013-04-29 18:56:00,
2013-04-29 15:00:00,62.9,27.5,30.21,SSE,158,4.3,6.0,26,0.00,,,0.00,VWS V14.01,2013-04-29 19:00:00,
2013-04-29 15:01:00,62.9,28.4,30.21,SE,135,3.8,4.0,27,0.00,,,0.00,VWS V14.01,2013-04-29 19:01:00,
2013-04-29 15:06:00,62.5,29.0,30.21,SSE,158,2.9,4.0,28,0.00,,,0.00,VWS V14.01,2013-04-29 19:06:00,
2013-04-29 15:11:00,62.7,30.0,30.21,South,180,5.4,5.8,29,0.00,,,0.00,VWS V14.01,2013-04-29 19:11:00,
2013-04-29 15:16:00,62.9,31.0,30.21,NNE,22,2.5,3.1,30,0.00,,,0.00,VWS V14.01,2013-04-29 19:16:00,
2013-04-29 15:21:00,62.9,31.8,30.21,ENE,68,2.0,2.7,31,0.00,,,0.00,VWS V14.01,2013-04-29 19:21:00,
2013-04-29 15:26:00,62.9,32.6,30.21,South,180,3.8,6.5,32,0.00,,,0.00,VWS V14.01,2013-04-29 19:26:00,
2013-04-29 15:30:00,62.9,32.6,30.21,South,180,3.8,6.5,32,0.00,,,0.00,VWS V14.01,2013-04-29 19:30:00,
2013-04-29 15:31:00,62.5,31.5,30.21,SSW,202,5.4,5.4,31,0.00,,,0.00,VWS V14.01,2013-04-29 19:31:00,
2013-04-29 15:36:00,62.0,32.6,30.21,South,180,4.7,4.7,33,0.00,,,0.00,VWS V14.01,2013-04-29 19:36:00,
2013-04-29 15:41:00,62.1,32.0,30.18,South,180,3.8,6.3,32,0.00,,,0.00,VWS V14.01,2013-04-29 19:41:00,
2013-04-29 15:46:00,62.1,32.7,30.18,SSE,158,4.7,4.9,33,0.00,,,0.00,VWS V14.01,2013-04-29 19:46:00,
2013-04-29 15:51:00,62.0,32.6,30.18,SSE,158,4.3,4.7,33,0.00,,,0.00,VWS V14.01,2013-04-29 19:51:00,
2013-04-29 15:56:00,61.8,32.4,30.21,South,180,3.6,4.0,33,0.00,,,0.00,VWS V14.01,2013-04-29 19:56:00,
2013-04-29 16:00:00,61.8,32.4,30.21,South,180,3.6,4.0,33,0.00,,,0.00,VWS V14.01,2013-04-29 20:00:00,
2013-04-29 16:01:00,61.6,33.0,30.21,SSW,202,3.8,7.6,34,0.00,,,0.00,VWS V14.01,2013-04-29 20:01:00,
2013-04-29 16:06:00,61.2,32.7,30.21,SSE,158,2.9,5.6,34,0.00,,,0.00,VWS V14.01,2013-04-29 20:06:00,
2013-04-29 16:11:00,61.2,33.4,30.21,South,180,4.3,4.9,35,0.00,,,0.00,VWS V14.01,2013-04-29 20:11:00,
2013-04-29 16:16:00,61.4,33.5,30.21,South,180,3.6,5.4,35,0.00,,,0.00,VWS V14.01,2013-04-29 20:16:00,
2013-04-29 16:21:00,61.6,33.0,30.21,SSE,158,2.5,3.8,34,0.00,,,0.00,VWS V14.01,2013-04-29 20:21:00,
2013-04-29 16:26:00,62.0,33.3,30.18,SSE,158,4.0,4.7,34,0.00,,,0.00,VWS V14.01,2013-04-29 20:26:00,
2013-04-29 16:30:00,62.0,33.3,30.18,SSE,158,2.0,4.7,34,0.00,,,0.00,VWS V14.01,2013-04-29 20:30:00,
2013-04-29 16:31:00,62.0,33.3,30.18,SSE,158,1.3,3.8,34,0.00,,,0.00,VWS V14.01,2013-04-29 20:31:00,
2013-04-29 16:36:00,61.8,33.1,30.18,SSW,202,2.2,3.6,34,0.00,,,0.00,VWS V14.01,2013-04-29 20:36:00,
2013-04-29 16:41:00,61.8,33.1,30.21,South,180,2.2,3.6,34,0.00,,,0.00,VWS V14.01,2013-04-29 20:41:00,
2013-04-29 16:46:00,62.0,33.3,30.21,South,180,4.0,4.3,34,0.00,,,0.00,VWS V14.01,2013-04-29 20:46:00,
2013-04-29 16:51:00,61.6,32.2,30.21,South,180,4.3,4.3,33,0.00,,,0.00,VWS V14.01,2013-04-29 20:51:00,
2013-04-29 16:56:00,61.6,32.2,30.21,SSE,158,2.7,4.0,33,0.00,,,0.00,VWS V14.01,2013-04-29 20:56:00,
2013-04-29 17:00:00,61.6,32.2,30.21,SSE,158,2.7,4.0,33,0.00,,,0.00,VWS V14.01,2013-04-29 21:00:00,
2013-04-29 17:01:00,61.4,31.3,30.21,South,180,3.8,3.8,32,0.00,,,0.00,VWS V14.01,2013-04-29 21:01:00,
2013-04-29 17:06:00,61.4,31.3,30.21,ESE,112,5.4,5.4,32,0.00,,,0.00,VWS V14.01,2013-04-29 21:06:00,
2013-04-29 17:11:00,61.6,30.7,30.21,South,180,3.1,3.8,31,0.00,,,0.00,VWS V14.01,2013-04-29 21:11:00,
2013-04-29 17:16:00,61.4,32.1,30.21,South,180,4.3,5.6,33,0.00,,,0.00,VWS V14.01,2013-04-29 21:16:00,
2013-04-29 17:21:00,60.7,31.5,30.21,SSE,158,3.4,5.4,33,0.00,,,0.00,VWS V14.01,2013-04-29 21:21:00,
2013-04-29 17:26:00,60.2,31.7,30.21,SSW,202,2.5,3.1,34,0.00,,,0.00,VWS V14.01,2013-04-29 21:26:00,
2013-04-29 17:30:00,60.2,31.7,30.21,SSW,202,2.2,3.6,34,0.00,,,0.00,VWS V14.01,2013-04-29 21:30:00,
2013-04-29 17:31:00,60.2,31.7,30.21,SSE,158,4.7,4.7,34,0.00,,,0.00,VWS V14.01,2013-04-29 21:31:00,
2013-04-29 17:36:00,60.3,31.9,30.21,South,180,4.3,4.3,34,0.00,,,0.00,VWS V14.01,2013-04-29 21:36:00,
2013-04-29 17:41:00,60.0,32.3,30.21,SSE,158,2.9,3.8,35,0.00,,,0.00,VWS V14.01,2013-04-29 21:41:00,
2013-04-29 17:46:00,59.8,32.1,30.21,South,180,2.9,4.3,35,0.00,,,0.00,VWS V14.01,2013-04-29 21:46:00,
2013-04-29 17:51:00,60.0,32.3,30.21,SSE,158,2.9,6.0,35,0.00,,,0.00,VWS V14.01,2013-04-29 21:51:00,
2013-04-29 17:56:00,59.8,32.1,30.21,SSE,158,2.5,4.3,35,0.00,,,0.00,VWS V14.01,2013-04-29 21:56:00,
2013-04-29 18:00:00,59.8,32.1,30.21,SSE,158,2.5,4.3,35,0.00,,,0.00,VWS V14.01,2013-04-29 22:00:00,
2013-04-29 18:01:00,60.0,33.0,30.21,SSE,158,3.1,3.8,36,0.00,,,0.00,VWS V14.01,2013-04-29 22:01:00,
2013-04-29 18:06:00,60.3,32.6,30.21,South,180,2.9,3.1,35,0.00,,,0.00,VWS V14.01,2013-04-29 22:06:00,
2013-04-29 18:11:00,61.1,33.2,30.21,South,180,3.4,3.4,35,0.00,,,0.00,VWS V14.01,2013-04-29 22:11:00,
2013-04-29 18:16:00,61.2,33.4,30.21,SSE,158,2.5,3.8,35,0.00,,,0.00,VWS V14.01,2013-04-29 22:16:00,
2013-04-29 18:21:00,60.2,32.4,30.21,South,180,2.0,3.6,35,0.00,,,0.00,VWS V14.01,2013-04-29 22:21:00,
2013-04-29 18:26:00,59.8,32.8,30.21,SSE,158,2.5,3.1,36,0.00,,,0.00,VWS V14.01,2013-04-29 22:26:00,
2013-04-29 18:30:00,59.8,32.8,30.21,SSE,158,2.5,3.1,36,0.00,,,0.00,VWS V14.01,2013-04-29 22:30:00,
2013-04-29 18:31:00,59.1,32.9,30.21,SSE,158,2.7,3.6,37,0.00,,,0.00,VWS V14.01,2013-04-29 22:31:00,
2013-04-29 18:36:00,58.4,32.2,30.21,SSE,158,3.4,3.4,37,0.00,,,0.00,VWS V14.01,2013-04-29 22:36:00,
2013-04-29 18:41:00,58.4,32.9,30.24,SSE,158,1.3,3.1,38,0.00,,,0.00,VWS V14.01,2013-04-29 22:41:00,
2013-04-29 18:46:00,59.1,33.5,30.24,SSE,158,2.2,2.9,38,0.00,,,0.00,VWS V14.01,2013-04-29 22:46:00,
2013-04-29 18:51:00,58.2,32.7,30.24,SSE,158,1.3,2.7,38,0.00,,,0.00,VWS V14.01,2013-04-29 22:51:00,
2013-04-29 18:56:00,56.0,32.1,30.24,SSE,158,1.6,2.0,40,0.00,,,0.00,VWS V14.01,2013-04-29 22:56:00,
2013-04-29 19:00:00,56.0,32.1,30.24,SSE,158,1.6,2.0,40,0.00,,,0.00,VWS V14.01,2013-04-29 23:00:00,
2013-04-29 19:01:00,54.2,31.6,30.24,SSE,158,2.0,2.7,42,0.00,,,0.00,VWS V14.01,2013-04-29 23:01:00,
2013-04-29 19:06:00,52.8,32.0,30.24,SSE,158,2.0,2.9,45,0.00,,,0.00,VWS V14.01,2013-04-29 23:06:00,
2013-04-29 19:11:00,51.9,31.8,30.24,SSE,158,1.3,1.3,46,0.00,,,0.00,VWS V14.01,2013-04-29 23:11:00,
2013-04-29 19:16:00,50.8,31.3,30.24,SSE,158,1.1,1.6,47,0.00,,,0.00,VWS V14.01,2013-04-29 23:16:00,
2013-04-29 19:21:00,50.1,31.2,30.24,SSE,158,2.0,2.0,48,0.00,,,0.00,VWS V14.01,2013-04-29 23:21:00,
2013-04-29 19:26:00,49.5,31.2,30.24,SSE,158,1.3,2.0,49,0.00,,,0.00,VWS V14.01,2013-04-29 23:26:00,
2013-04-29 19:30:00,49.5,31.2,30.24,SSE,158,1.3,2.0,49,0.00,,,0.00,VWS V14.01,2013-04-29 23:30:00,
2013-04-29 19:31:00,48.6,30.9,30.24,SSE,158,1.3,2.0,50,0.00,,,0.00,VWS V14.01,2013-04-29 23:31:00,
2013-04-29 19:36:00,48.1,30.8,30.24,SSE,158,1.1,1.1,51,0.00,,,0.00,VWS V14.01,2013-04-29 23:36:00,
2013-04-29 19:41:00,47.6,30.8,30.24,SSE,158,0.0,0.0,52,0.00,,,0.00,VWS V14.01,2013-04-29 23:41:00,
2013-04-29 19:46:00,46.8,31.1,30.24,SSE,158,0.0,0.0,54,0.00,,,0.00,VWS V14.01,2013-04-29 23:46:00,
2013-04-29 19:51:00,46.3,31.0,30.24,SSE,158,1.1,1.1,55,0.00,,,0.00,VWS V14.01,2013-04-29 23:51:00,
2013-04-29 19:56:00,45.9,31.1,30.24,SSE,158,0.0,0.0,56,0.00,,,0.00,VWS V14.01,2013-04-29 23:56:00,
2013-04-29 20:00:00,45.9,31.1,30.24,SSE,158,0.0,0.0,56,0.00,,,0.00,VWS V14.01,2013-04-30 00:00:00,
2013-04-29 20:01:00,45.6,30.8,30.24,SSE,158,1.6,1.6,56,0.00,,,0.00,VWS V14.01,2013-04-30 00:01:00,
2013-04-29 20:06:00,45.2,31.3,30.24,SSE,158,1.1,1.1,58,0.00,,,0.00,VWS V14.01,2013-04-30 00:06:00,
2013-04-29 20:11:00,44.9,31.4,30.24,SSE,158,1.3,1.3,59,0.00,,,0.00,VWS V14.01,2013-04-30 00:11:00,
2013-04-29 20:16:00,44.3,31.7,30.24,SSE,158,0.0,0.0,61,0.00,,,0.00,VWS V14.01,2013-04-30 00:16:00,
2013-04-29 20:21:00,44.1,32.4,30.24,SSE,158,0.0,0.0,63,0.00,,,0.00,VWS V14.01,2013-04-30 00:21:00,
2013-04-29 20:26:00,44.0,32.6,30.24,SSE,158,0.0,1.3,64,0.00,,,0.00,VWS V14.01,2013-04-30 00:26:00,
2013-04-29 20:30:00,44.0,32.6,30.24,SSE,158,0.0,1.3,64,0.00,,,0.00,VWS V14.01,2013-04-30 00:30:00,
2013-04-29 20:31:00,43.8,32.8,30.24,SSE,158,0.0,0.0,65,0.00,,,0.00,VWS V14.01,2013-04-30 00:31:00,
2013-04-29 20:36:00,43.6,33.0,30.24,SSE,158,0.9,1.3,66,0.00,,,0.00,VWS V14.01,2013-04-30 00:36:00,
2013-04-29 20:41:00,43.4,33.9,30.27,SSE,158,0.0,1.6,69,0.00,,,0.00,VWS V14.01,2013-04-30 00:41:00,
2013-04-29 20:46:00,43.1,33.6,30.27,SSE,158,0.0,0.0,69,0.00,,,0.00,VWS V14.01,2013-04-30 00:46:00,
2013-04-29 20:51:00,42.9,33.8,30.27,SSE,158,0.0,0.0,70,0.00,,,0.00,VWS V14.01,2013-04-30 00:51:00,
2013-04-29 20:56:00,42.7,34.3,30.27,SSE,158,0.0,0.0,72,0.00,,,0.00,VWS V14.01,2013-04-30 00:56:00,
2013-04-29 21:00:00,42.7,34.3,30.27,SSE,158,0.0,0.0,72,0.00,,,0.00,VWS V14.01,2013-04-30 01:00:00,
2013-04-29 21:01:00,42.5,34.1,30.27,SSE,158,0.0,0.0,72,0.00,,,0.00,VWS V14.01,2013-04-30 01:01:00,
2013-04-29 21:06:00,42.3,34.0,30.27,SSE,158,0.0,0.0,72,0.00,,,0.00,VWS V14.01,2013-04-30 01:06:00,
2013-04-29 21:11:00,42.3,34.0,30.27,SSE,158,0.0,0.0,72,0.00,,,0.00,VWS V14.01,2013-04-30 01:11:00,
2013-04-29 21:16:00,42.0,34.0,30.27,SSE,158,0.0,0.0,73,0.00,,,0.00,VWS V14.01,2013-04-30 01:16:00,
2013-04-29 21:21:00,41.8,34.1,30.27,SSE,158,0.0,0.0,74,0.00,,,0.00,VWS V14.01,2013-04-30 01:21:00,
2013-04-29 21:26:00,41.8,34.1,30.27,SSE,158,0.0,0.0,74,0.00,,,0.00,VWS V14.01,2013-04-30 01:26:00,
2013-04-29 21:30:00,41.8,34.1,30.27,SSE,158,0.0,0.0,74,0.00,,,0.00,VWS V14.01,2013-04-30 01:30:00,
2013-04-29 21:31:00,41.8,34.8,30.27,SSE,158,0.0,0.0,76,0.00,,,0.00,VWS V14.01,2013-04-30 01:31:00,
2013-04-29 21:36:00,41.6,34.6,30.27,SSE,158,0.0,0.0,76,0.00,,,0.00,VWS V14.01,2013-04-30 01:36:00,
2013-04-29 21:41:00,41.3,34.6,30.27,SSE,158,0.0,0.0,77,0.00,,,0.00,VWS V14.01,2013-04-30 01:41:00,
2013-04-29 21:46:00,41.1,34.4,30.27,SSE,158,0.0,0.0,77,0.00,,,0.00,VWS V14.01,2013-04-30 01:46:00,
2013-04-29 21:51:00,41.1,34.8,30.27,SSE,158,0.0,0.0,78,0.00,,,0.00,VWS V14.01,2013-04-30 01:51:00,
2013-04-29 21:56:00,40.9,34.3,30.27,SSE,158,0.0,0.0,77,0.00,,,0.00,VWS V14.01,2013-04-30 01:56:00,
2013-04-29 22:00:00,40.9,34.3,30.27,SSE,158,0.0,0.0,77,0.00,,,0.00,VWS V14.01,2013-04-30 02:00:00,
2013-04-29 22:01:00,40.7,34.4,30.27,SSE,158,0.0,0.0,78,0.00,,,0.00,VWS V14.01,2013-04-30 02:01:00,
2013-04-29 22:06:00,40.5,34.5,30.27,SSE,158,0.0,0.0,79,0.00,,,0.00,VWS V14.01,2013-04-30 02:06:00,
2013-04-29 22:11:00,40.4,34.4,30.27,SSE,158,0.0,0.0,79,0.00,,,0.00,VWS V14.01,2013-04-30 02:11:00,
2013-04-29 22:16:00,40.2,34.2,30.27,SSE,158,0.0,0.0,79,0.00,,,0.00,VWS V14.01,2013-04-30 02:16:00,
2013-04-29 22:21:00,40.0,34.3,30.27,SSE,158,0.0,0.0,80,0.00,,,0.00,VWS V14.01,2013-04-30 02:21:00,
2013-04-29 22:26:00,39.8,34.5,30.27,SSE,158,0.0,0.0,81,0.00,,,0.00,VWS V14.01,2013-04-30 02:26:00,
2013-04-29 22:30:00,39.8,34.5,30.27,SSE,158,0.0,0.0,81,0.00,,,0.00,VWS V14.01,2013-04-30 02:30:00,
2013-04-29 22:31:00,39.6,34.3,30.27,SSE,158,0.0,0.0,81,0.00,,,0.00,VWS V14.01,2013-04-30 02:31:00,
2013-04-29 22:36:00,39.5,34.4,30.27,SSE,158,0.0,0.0,82,0.00,,,0.00,VWS V14.01,2013-04-30 02:36:00,
2013-04-29 22:41:00,39.3,34.3,30.27,SSE,158,0.0,0.0,82,0.00,,,0.00,VWS V14.01,2013-04-30 02:41:00,
2013-04-29 22:46:00,38.9,33.9,30.27,SSE,158,0.0,0.0,82,0.00,,,0.00,VWS V14.01,2013-04-30 02:46:00,
2013-04-29 22:51:00,38.9,34.2,30.27,SSE,158,0.0,0.0,83,0.00,,,0.00,VWS V14.01,2013-04-30 02:51:00,
2013-04-29 22:56:00,39.1,34.4,30.27,SSE,158,0.0,0.0,83,0.00,,,0.00,VWS V14.01,2013-04-30 02:56:00,
2013-04-29 23:00:00,39.1,34.4,30.27,SSE,158,0.0,0.0,83,0.00,,,0.00,VWS V14.01,2013-04-30 03:00:00,
2013-04-29 23:01:00,39.3,35.5,30.27,SSE,158,1.3,1.3,86,0.00,,,0.00,VWS V14.01,2013-04-30 03:01:00,
2013-04-29 23:06:00,39.1,35.3,30.27,SSE,158,0.0,0.0,86,0.00,,,0.00,VWS V14.01,2013-04-30 03:06:00,
2013-04-29 23:11:00,38.9,34.8,30.27,SSE,158,0.0,0.0,85,0.00,,,0.00,VWS V14.01,2013-04-30 03:11:00,
2013-04-29 23:16:00,38.7,34.6,30.27,SSE,158,0.0,0.0,85,0.00,,,0.00,VWS V14.01,2013-04-30 03:16:00,
2013-04-29 23:21:00,38.6,34.5,30.27,SSE,158,0.0,0.0,85,0.00,,,0.00,VWS V14.01,2013-04-30 03:21:00,
2013-04-29 23:26:00,38.4,34.3,30.27,SSE,158,0.0,0.0,85,0.00,,,0.00,VWS V14.01,2013-04-30 03:26:00,
2013-04-29 23:30:00,38.4,34.3,30.27,SSE,158,0.0,0.0,85,0.00,,,0.00,VWS V14.01,2013-04-30 03:30:00,
2013-04-29 23:31:00,38.4,34.3,30.27,SSE,158,0.0,0.0,85,0.00,,,0.00,VWS V14.01,2013-04-30 03:31:00,
2013-04-29 23:36:00,38.2,34.4,30.27,SSE,158,0.0,0.0,86,0.00,,,0.00,VWS V14.01,2013-04-30 03:36:00,
2013-04-29 23:41:00,38.2,34.1,30.27,SSE,158,0.0,0.0,85,0.00,,,0.00,VWS V14.01,2013-04-30 03:41:00,
2013-04-29 23:47:00,38.2,34.4,30.27,SSE,158,0.0,0.0,86,0.00,,,0.00,VWS V14.01,2013-04-30 03:47:00,
2013-04-29 23:51:00,38.0,34.5,30.27,SSE,158,0.0,0.0,87,0.00,,,0.00,VWS V14.01,2013-04-30 03:51:00,
2013-04-29 23:56:00,37.8,34.6,30.27,SSE,158,0.0,0.0,88,0.00,,,0.00,VWS V14.01,2013-04-30 03:56:00,